Mt. Pocono, PA

10:53 PM EDT on October 22, 2019 (GMT -0400)
Pocono Mountains Municipal

Weather History for KMPO - September, 2019

Change the Weather History Date:

Monday, September 16, 2019

  Actual Average Record
Temperature  
Mean Temperature 64 °F 59 °F  
Max Temperature 72 °F 68 °F 87 °F (1991)
Min Temperature 55 °F 50 °F 31 °F (1964)
Degree Days  
Heating Degree Days 2 7  
Month to date heating degree days 48 72  
Since 1 July heating degree days 89 135  
Cooling Degree Days 0 0  
Month to date cooling degree days 19 13  
Year to date cooling degree days 337 309  
Growing Degree Days 14 (Base 50)    
Moisture  
Dew Point 60 °F    
Average Humidity 85    
Maximum Humidity 100    
Minimum Humidity 65    
Precipitation  
Precipitation T in 0.17 in 3.00 in (1933)
Month to date precipitation 0.92 2.68  
Year to date precipitation 35.85 33.66  
Sea Level Pressure  
Sea Level Pressure 30.09 in    
Wind  
Wind Speed 4 mph ()    
Max Wind Speed 12 mph    
Max Gust Speed 14 mph    
Visibility 10.0 miles    
Events Rain    
T = Trace of Precipitation, MM = Missing Value Source: Averaged Metar Reports

Daily Weather History Graph

Daily Weather History Graph

Search for Another Location

Airport or City:

Astronomy

Sep. 16, 2019 Rise Set
Actual Time 6:42 AM EDT 7:09 PM EDT
Civil Twilight 6:15 AM EDT 7:36 PM EDT
Nautical Twilight 5:42 AM EDT 8:09 PM EDT
Astronomical Twilight 5:09 AM EDT 8:42 PM EDT
Moon 8:42 PM EDT (9/16) 8:48 AM EDT (9/16)
Length of Visible Light 13h 21m
Length of Day
12h 26m
Waning Gibbous, 94% of the Moon is Illuminated
Sep 16
Waning Gibbous
Sep 21
Last Quarter
Sep 28
New
Oct 5
First Quarter
Oct 13
Full

Hourly Weather History & Observations

Time (EDT) Temp. Dew Point Humidity Pressure Visibility Wind Dir Wind Speed Gust Speed Precip Events Conditions
12:53 AM 59.0 °F 57.9 °F 96% 30.12 in 10.0 mi WNW 3.5 mph - 0.00 in   Scattered Clouds
1:53 AM 60.1 °F 57.9 °F 93% 30.11 in 10.0 mi West 4.6 mph - N/A   Mostly Cloudy
2:53 AM 60.1 °F 57.9 °F 93% 30.10 in 10.0 mi West 6.9 mph - N/A   Partly Cloudy
3:53 AM 61.0 °F 59.0 °F 93% 30.11 in 10.0 mi West 9.2 mph - 0.00 in Rain Light Rain
4:53 AM 61.0 °F 59.0 °F 93% 30.09 in 10.0 mi WNW 6.9 mph - 0.00 in   Overcast
5:53 AM 61.0 °F 57.9 °F 90% 30.10 in 10.0 mi WNW 8.1 mph - N/A   Mostly Cloudy
6:53 AM 60.1 °F 59.0 °F 96% 30.11 in 10.0 mi WNW 5.8 mph - N/A   Overcast
7:53 AM 61.0 °F 59.0 °F 93% 30.11 in 10.0 mi WNW 4.6 mph - N/A   Overcast
8:53 AM 63.0 °F 59.0 °F 87% 30.11 in 10.0 mi West 4.6 mph - N/A   Overcast
9:53 AM 66.9 °F 60.1 °F 79% 30.11 in 10.0 mi NW 5.8 mph - N/A   Overcast
10:53 AM 70.0 °F 59.0 °F 68% 30.10 in 10.0 mi WNW 4.6 mph - N/A   Mostly Cloudy
11:53 AM 71.1 °F 59.0 °F 66% 30.09 in 10.0 mi NW 4.6 mph - N/A   Overcast
12:53 PM 70.0 °F 57.9 °F 65% 30.08 in 10.0 mi NNW 8.1 mph - N/A   Overcast
1:41 PM 68.0 °F 62.1 °F 81% 30.10 in 10.0 mi ESE 3.5 mph - N/A   Overcast
1:53 PM 66.9 °F 62.1 °F 84% 30.08 in 10.0 mi Calm Calm - N/A   Overcast
2:22 PM 68.0 °F 63.0 °F 84% 30.09 in 10.0 mi SSE 3.5 mph - N/A   Overcast
2:53 PM 68.0 °F 63.0 °F 84% 30.06 in 10.0 mi Variable 3.5 mph - N/A   Overcast
3:03 PM 68.0 °F 63.0 °F 84% 30.08 in 10.0 mi Calm Calm - N/A   Overcast
3:14 PM 68.0 °F 62.1 °F 81% 30.08 in 10.0 mi Calm Calm - N/A   Overcast
3:21 PM 69.1 °F 62.1 °F 78% 30.08 in 10.0 mi Calm Calm - N/A   Overcast
3:53 PM 66.9 °F 64.0 °F 90% 30.06 in 10.0 mi East 3.5 mph - N/A   Overcast
4:53 PM 69.1 °F 60.1 °F 73% 30.05 in 10.0 mi NW 5.8 mph - N/A   Overcast
5:13 PM 68.0 °F 61.0 °F 78% 30.07 in 10.0 mi NW 6.9 mph - N/A   Overcast
5:53 PM 69.1 °F 61.0 °F 75% 30.05 in 10.0 mi NW 8.1 mph - N/A   Mostly Cloudy
6:53 PM 66.0 °F 60.1 °F 81% 30.06 in 10.0 mi NW 5.8 mph - N/A   Clear
7:53 PM 61.0 °F 59.0 °F 93% 30.08 in 10.0 mi Calm Calm - N/A   Clear
8:53 PM 57.0 °F 57.0 °F 100% 30.09 in 10.0 mi Calm Calm - N/A   Clear
9:53 PM 57.9 °F 57.0 °F 97% 30.09 in 10.0 mi NW 5.8 mph - N/A   Clear
10:53 PM 59.0 °F 55.0 °F 87% 30.10 in 10.0 mi NNW 9.2 mph - N/A   Partly Cloudy